Regional Weather Roundup
Issued by NWS

Home | Current Version | Previous Version | Graphics & Text | Print | Product List | Glossary Off
Versions: 1 2 3 4 5 6 7 8 9 10 11 12 13 14 15 16 17 18 19 20 21 22 23 24 25 26 27 28 29 30 31 32 33 34 35 36 37 38 39 40 41 42 43 44 45 46 47 48 49 50

000
ASUS45 KBOU 191707
RWRCO

WEATHER ROUNDUP FOR COLORADO
NATIONAL WEATHER SERVICE DENVER/BOULDER CO
1000 AM MST FRI DEC 19 2014

NOTE: "FAIR" INDICATES FEW OR NO CLOUDS BELOW 12000 FEET WITH NO
SIGNIFICANT WEATHER AND/OR OBSTRUCTIONS TO VISIBILITY.

COZ001>005-013-030-031-191800-
...NORTHWEST COLORADO...

CITY           SKY/WX    TMP DP  RH WIND       PRES   REMARKS
CRAIG          CLOUDY    27  21  78 CALM      30.25S
HAYDEN         PTSUNNY   21  18  86 CALM      30.24R
MEEKER         CLOUDY    23  22  96 CALM      30.25S
MOUNT WERNER   NOT AVBL
STEAMBOAT SPGS CLOUDY    20  17  89 CALM      30.23R
WALDEN         SUNNY     19  18  93 S14       30.13S WCI   6
$$

COZ006>008-011-191800-
...WEST CENTRAL VALLEYS...

CITY           SKY/WX    TMP DP  RH WIND       PRES   REMARKS
GRAND JUNCTION PTSUNNY   32  29  88 E5        30.29R WCI  27
MONTROSE       CLOUDY    32  26  78 SE6       30.29R WCI  26
EAGLE          MOSUNNY   27  25  93 CALM      30.27R
RIFLE          CLOUDY    29  26  89 E3        30.27S
DELTA          PTSUNNY   33  28  81 CALM      30.30R
NUCLA          MOSUNNY   32  27  80 E9        30.31S WCI  24
$$

COZ017>023-064>068-191800-
...SOUTHWEST COLORADO...

CITY           SKY/WX    TMP DP  RH WIND       PRES   REMARKS
DURANGO        CLOUDY    25  18  74 CALM      30.23S
CORTEZ         SUNNY     31  22  69 NE5       30.27R WCI  26
PAGOSA SPRINGS SUNNY     25  18  74 CALM      30.21S
TELLURIDE      NOT AVBL
WOLF CREEK PAS SUNNY     14  14 100 MISG      30.14R
$$

COZ009-010-012-014-032>034-037-058>063-191800-
...CENTRAL COLORADO...

CITY           SKY/WX    TMP DP  RH WIND       PRES   REMARKS
ASPEN          FLURRIES  21  15  78 CALM      30.22R
BUENA VISTA    SUNNY     30   8  38 NW17      30.14S WCI  19
COPPER MTN     CLOUDY    14   9  79 W17G26    30.12R WCI  -3
BERTHOUD PASS  CLOUDY     5   0  78 MISG      30.06R
COTTONWOOD PAS SUNNY     27   3  36 W8G24     30.12R WCI  18
GUNNISON       CLOUDY    18   9  68 CALM      30.26R
KREMMLING      LGT SNOW N/A N/A N/A CALM      30.24R
LEADVILLE      CLOUDY    19   5  54 W3        30.14R
MONARCH PASS   CLOUDY     9   5  85 MISG      30.20R
SALIDA         SUNNY     31  12  44 W3        30.24R
SUNLIGHT       LGT SNOW N/A N/A N/A CALM      30.19R VSB 3/4
WILKERSON PASS MOSUNNY   14   1  57 N6        30.10R WCI   5
$$

COZ069>075-191800-
...SAN LUIS VALLEY/SANGRE DE CRISTO MOUNTAINS...

CITY           SKY/WX    TMP DP  RH WIND       PRES   REMARKS
ALAMOSA        SUNNY     19  16  88 VRB3      30.21R
LA VETA PASS   SUNNY     18  14  86 S13       30.09R WCI   4
SAGUACHE       MOSUNNY   19  16  86 SE8       30.20R WCI   9
$$

COZ035-036-038>040-191800-
...NORTHERN COLORADO FRONT RANGE...

CITY           SKY/WX    TMP DP  RH WIND       PRES   REMARKS
DENVER INTL AP MOSUNNY   35  25  66 SW9       30.10S WCI  28
DMNS CITY PARK   N/A     36  18  47 S5        30.11S
AURORA         MOSUNNY   34  22  61 SW8       30.11S WCI  27
FRONT RANGE AP MOSUNNY   37  30  75 SW7       30.11
ERIE MUNI ARPT   N/A     37  27  68 SW3       30.11R
BOULDER MUN AP SUNNY     37  23  56 CALM      30.09S
CENTENNIAL     MOSUNNY   33  25  72 E3        30.11R
BROOMFIELD     MOSUNNY   36  25  64 CALM      30.10S
FORT COLLINS   SUNNY     34  27  75 S6        30.10S WCI  29
LONGMONT       SUNNY     39  28  64 CALM      30.11F
$$

COZ041-046-047-076>085-087-088-191800-
...PIKES PEAK/PALMER DIVIDE AND SOUTHERN FOOTHILLS...

CITY           SKY/WX    TMP DP  RH WIND       PRES   REMARKS
COLO. SPRINGS  MOSUNNY   40  13  33 N10       30.11R
A. F. ACADEMY  SUNNY     35  12  38 N8        30.10S WCI  29
ELLICOTT       NOT AVBL
FALCON         SUNNY     36  15  41 N5        30.11S
FORT CARSON    SUNNY     36  18  48 VRB2      30.11R
LIMON          SUNNY     34  28  79 NW6       30.11S WCI  29
MONUMENT HILL  SUNNY     32  14  47 CALM      30.09R
TRINIDAD       SUNNY     37  23  56 W5        30.12R
$$

COZ042>045-048>051-090-091-191800-
...NORTHEAST COLORADO...

CITY           SKY/WX    TMP DP  RH WIND       PRES   REMARKS
GREELEY ARPT   SUNNY     30  19  64 CALM      30.10S
AKRON          SUNNY     27  22  81 SW12      30.10S WCI  17
BURLINGTON     CLOUDY    34  27  75 SW6       30.13S WCI  29
WRAY           SUNNY     29  24  81 W5        30.12S WCI  24
STERLING       SUNNY     19  18  93 SW10      30.11S WCI   8
HOLYOKE        NOT AVBL
FORT MORGAN    SUNNY     20  17  84 W8        30.11S WCI  11
$$

COZ086-089-092>099-191800-
...SOUTHEAST COLORADO...

CITY           SKY/WX    TMP DP  RH WIND       PRES   REMARKS
PUEBLO         SUNNY     35  26  69 W8        30.13  WCI  29
LA JUNTA       SUNNY     35  28  75 SW6       30.15R WCI  30
LAMAR          SUNNY     35  31  85 MISG      30.14R
SPRINGFIELD      N/A     41  33  73 NW9       30.13R
$$



USA.gov is the U.S. government's official web portal to all federal, state and local government web resources and services.